Regional Weather Roundup
Issued by NWS

Home | Current Version | Previous Version | Text Only | Print | Product List | Glossary Off
Versions: 1 2 3 4 5 6 7 8 9 10 11 12 13 14 15 16 17 18 19 20 21 22 23 24 25 26 27 28 29 30 31 32 33 34 35 36 37 38 39 40 41 42 43 44 45 46 47 48 49 50

000
ASUS43 KMKX 222300
RWRWI

WISCONSIN REGIONAL WEATHER ROUNDUP
NATIONAL WEATHER SERVICE MILWAUKEE/SULLIVAN WI
500 PM CST MON DEC 22 2014

NOTE: "FAIR" INDICATES FEW OR NO CLOUDS BELOW 12,000 FEET WITH NO
SIGNIFICANT WEATHER AND/OR OBSTRUCTIONS TO VISIBILITY.

WIZ001-002-006>008-014>016-023>028-230000-
NORTHWEST WISCONSIN

CITY           SKY/WX    TMP DP  RH WIND       PRES   REMARKS
SUPERIOR ARPT  CLOUDY    35  34  96 E5        29.72R FOG     WCI  31
ASHLAND        CLOUDY    36  32  85 E5        29.74S WCI  32
HAYWARD        CLOUDY    35  32  88 E6        29.68F FOG     WCI  30
SIREN          CLOUDY    36  33  91 E5        29.67R FOG     WCI  32
CUMBERLAND     CLOUDY    34  32  93 E7        29.66R FOG     WCI  28
RICE LAKE      CLOUDY    36  33  88 E10       29.67S FOG     WCI  28
CHETEK         CLOUDY    36  33  88 E7        29.67R FOG     WCI  30
LADYSMITH      CLOUDY    36  33  88 E12       29.70S FOG     WCI  28
EAU CLAIRE     CLOUDY    38  32  79 E8        29.65S WCI  32
MENOMONIE      CLOUDY    38  34  87 E9        29.65S FOG     WCI  31
NEW RICHMOND   CLOUDY    36  35  96 E8        29.63S FOG     WCI  30
OSCEOLA        CLOUDY    37  37 100 E8        29.65S FOG     WCI  30
$$

WIZ003>005-009-010-017-018-230000-
NORTH CENTRAL WISCONSIN

CITY           SKY/WX    TMP DP  RH WIND       PRES   REMARKS
MANITOWISH WTR CLOUDY    33  33 100 SE7       29.73S FOG     WCI  26
ARBOR VITAE    CLOUDY    34  32  94 SE9       29.73S FOG     WCI  27
WOODRUFF       CLOUDY    34  32  94 SE9       29.73S FOG     WCI  27
RHINELANDER    CLOUDY    32  31  96 E12       29.75R FOG     WCI  23
EAGLE RIVER    CLOUDY    33  32  97 SE8       29.75S FOG     WCI  26
LAND O LAKES   CLOUDY    33  32  96 SE6       29.77S FOG     WCI  28
PHILLIPS       CLOUDY    33  32  94 SE7       29.70S FOG     WCI  27
TOMAHAWK       CLOUDY    32  31  96 CALM      29.73S FOG
MEDFORD        CLOUDY    33  31  92 E9        29.70S FOG     WCI  25
MERRILL        CLOUDY    33  32  94 E7        29.73S FOG     WCI  27
$$

WIZ029-030-035-036-043>047-230000-
CENTRAL WISCONSIN

CITY           SKY/WX    TMP DP  RH WIND       PRES   REMARKS
WAUSAU         CLOUDY    34  30  85 E14       29.72R WCI  25
MOSINEE        NOT AVBL
MARSHFIELD     CLOUDY    35  31  85 E10       29.69S FOG     WCI  27
STEVENS POINT  CLOUDY    33  30  91 E14       29.73S FOG     WCI  23
WAUPACA        DRIZZLE   37  33  85 E7        29.75F WCI  31
WAUTOMA        MIX PCPN  34  34 100 NE8       29.72F FOG     WCI  27
WISC RAPIDS    LGT SNOW  35  31  85 E12       29.71S FOG     WCI  27
CAMP DOUGLAS   LGT SNOW  34  34 100 E10       29.67S FOG     WCI  26
$$

WIZ011>013-019>022-031-037>040-048>050-230000-
NORTHEAST WISCONSIN

CITY           SKY/WX    TMP DP  RH WIND       PRES   REMARKS
ANTIGO         CLOUDY    32  31  95 E13G18    29.75S FOG     WCI  22
SHAWANO        CLOUDY    36  32  85 E8        29.79S FOG     WCI  30
OCONTO         CLOUDY    34  32  92 E3        29.81F
STURGEON BAY   CLOUDY    36  28  75 SE9G17    29.84S WCI  29
GREEN BAY      LGT RAIN  35  32  88 MISG      29.79S FOG
MANITOWOC      NOT AVBL
APPLETON       LGT SNOW  34  34 100 E6        29.76F WCI  29
CLINTONVILLE   CLOUDY    36  32  87 E7        29.78S HAZE    WCI  30
OSHKOSH        LGT SNOW  33  31  92 E9        29.74S VSB 1   WCI  25
$$

WIZ032>034-041-042-053>061-230000-
SOUTHWEST WISCONSIN

CITY           SKY/WX    TMP DP  RH WIND       PRES   REMARKS
LA CROSSE      LGT RAIN  38  34  85 E6        29.63S WCI  33
SPARTA         LGT RAIN  35  33  93 E10       29.66S WCI  27
VIROQUA        CLOUDY    33  33 100 E12       29.60F VSB 1   WCI  24
BOSCOBEL       LGT RAIN  36  33  89 VRB5      29.63R FOG     WCI  32
PRAIRIE DU CHI LGT RAIN  36  33  91 E8        29.60S WCI  29
PLATTEVILLE    CLOUDY    35  34  96 E10G16    29.61S WCI  27
$$

WIZ056-057-062-063-064-067-068-230000-
SOUTH CENTRAL WISCONSIN

CITY           SKY/WX    TMP DP  RH WIND       PRES   REMARKS
REEDSBURG      LGT RAIN  33  32  98 E8        29.64F WCI  26
BARABOO/DELLS  LGT RAIN  33  32  96 E13       29.65F WCI  24
LONE ROCK      NOT AVBL
MINERAL POINT  CLOUDY    36  34  93 E10       29.61R FOG     WCI  28
MADISON        LGT RAIN  35  33  92 E13G22    29.64F FOG     WCI  26
MIDDLETON      CLOUDY    37  36  98 E13       29.64F WCI  28
WATERTOWN      MIX PCPN  34  34 100 E17       29.68F WCI  23
MONROE         LGT RAIN  34  34 100 E14       29.62S WCI  24
JANESVILLE     LGT RAIN  37  36  93 SE9       29.65R WCI  31
$$

WIZ051-052-058>065-066-070>072-230000-
SOUTHEAST WISCONSIN

CITY           SKY/WX    TMP DP  RH WIND       PRES   REMARKS
MILWAUKEE      LGT RAIN  37  34  89 E17       29.73F FOG     WCI  27
WAUKESHA       LGT RAIN  34  34 100 E14       29.71F FOG     WCI  24
MILWAUKEE/TIMM LGT RAIN  36  34  93 E9        29.74F FOG     WCI  29
RACINE         LGT RAIN  37  35  92 SE14      29.74F FOG     WCI  28
BURLINGTON     MIX PCPN  33  33  99 E13       29.70S WCI  24
KENOSHA        LGT RAIN  37  36  96 E13       29.71F FOG     WCI  29
FOND DU LAC    LGT SNOW  35  31  85 E12       29.73F FOG     WCI  27
SHEBOYGAN      LGT RAIN  36  33  89 E10       29.77F FOG     WCI  28
WEST BEND      LGT RAIN  34  32  93 E10       29.73F WCI  26
JUNEAU         LGT RAIN  33  32  96 E14       29.71S WCI  24
$$

LSZ147-162-230000-
LAKE SUPERIOR

STATION/POSITION TIME  TEMP    WIND        PRES    WAVE
                       AIR SEA DIR/SP/G            HT/PER
                 (UTC) (F)     (DEG/KT/KT) (MB)    (FT/S)
DEVILS ISLAND    2200   36     130/  6/  7 1008.2R
PORT WING        2240   36      70/  4/  6 1007.1R
SAXON HARBOR     2200   38        CALM     1007.1R
$$

LMZ867-665-643>646-230000-
LAKE MICHIGAN

STATION/POSITION TIME  TEMP    WIND        PRES    WAVE
                       AIR SEA DIR/SP/G            HT/PER
                 (UTC) (F)     (DEG/KT/KT) (MB)    (FT/S)
CHAMBERS ISLAND  2200   36      90/  3/  7 1011.2F
NORTHPORT PIER   2200   37     120/ 13/ 16 1011.2S
SISTER BAY       2213          120/  6/ 10   N/A
ALGOMA LAKESHORE 2215          150/ 20/ 24   N/A
KEWAUNEE LAKESHO 2200   37     140/ 14/ 19 1008.9F
SHEBOYGAN LAKESH 2200   37 38  110/ 21/ 23 1009.1F
PORT WASHINGTON  2240   38     120/ 20/ 23 1008.5F
MILWAUKEE LAKESH 2200   37     110/ 18/ 21   N/A
KENOSHA   LAKESH 2200   37     130/ 16/ 20 1007.1F
$$

TC  - TEMPERATURE IN CELSIUS
VSB - VISIBILITY IN STATUTE MILES
WCI - WIND CHILL INDEX
HX  - HEAT INDEX




USA.gov is the U.S. government's official web portal to all federal, state and local government web resources and services.